Theta_e
301 300 305 306 303 292 297 296 294 297 301 299 296 299 304 306 303 300 308 309 310 317 318 318 321 321 321 324 325 326 325 328 330 330 331 333 336 336 337 344 341 341 340 341 343 344 340 341 342 344 348 349 349 350 350 349 349 351 347 352 350 351 350
304 304 305 306 304 301 295 293 295 300 304 302 295 293 290 293 294 299 306 302 303 305 302 316 317 317 319 320 322 325 325 327 328 329 330 331 334 337 340 345 343 342 341 343 345 348 347 341 342 344 347 350 350 351 351 348 349 352 348 351 351 351 350
305 307 300 298 302 304 299 297 302 297 291 291 293 293 287 288 292 295 302 304 304 305 303 311 312 314 316 318 321 323 323 325 326 328 331 332 336 338 339 337 339 340 340 342 344 347 349 345 344 346 348 350 351 351 352 350 350 353 353 353 353 352 351
301 301 297 293 294 298 304 302 299 302 297 295 292 296 292 296 292 293 294 301 295 308 307 312 312 315 317 318 319 321 323 325 326 326 331 334 334 335 337 338 339 340 340 340 341 342 345 344 345 346 348 349 349 350 351 350 351 350 353 352 351 349 350
299 292 296 297 297 295 295 294 295 297 300 300 297 298 296 292 292 291 293 292 297 305 314 315 315 317 319 319 319 321 326 328 329 332 332 333 334 334 334 337 339 338 340 342 344 344 345 347 349 347 347 347 347 348 348 350 348 346 348 349 348 348 348
292 295 299 302 301 299 296 294 297 297 295 293 289 292 297 296 294 291 291 290 298 308 321 318 317 319 320 321 322 323 326 328 331 331 332 332 333 333 333 335 338 338 339 341 345 346 344 345 347 348 346 344 343 342 343 345 345 347 347 347 346 347 347
295 298 303 304 304 304 302 300 299 297 296 295 289 285 293 299 302 304 299 296 297 312 320 320 319 320 322 323 324 324 326 328 330 331 332 332 332 333 334 335 337 337 338 339 343 345 344 343 344 345 345 345 343 342 343 345 345 344 347 346 347 347 347
300 303 305 306 307 303 299 299 300 297 297 299 296 293 296 295 298 295 294 293 296 310 319 319 319 320 322 321 324 325 326 328 328 329 330 330 330 331 333 335 337 337 338 338 340 343 343 342 342 343 343 344 346 345 344 345 345 346 348 347 348 349 348
291 294 298 300 303 303 297 297 296 301 299 302 301 301 299 295 296 297 293 290 295 307 321 320 321 321 322 322 324 326 325 327 327 327 328 329 330 331 332 333 336 337 337 336 338 339 339 341 341 341 342 342 342 344 346 346 346 347 348 349 347 347 349
284 284 285 289 291 295 299 301 300 300 302 302 298 296 295 288 297 300 295 294 299 311 318 318 320 320 320 324 325 326 327 326 326 326 326 327 329 330 332 332 335 336 336 335 336 337 338 339 340 341 342 343 343 345 346 349 346 348 351 349 347 348 346
286 289 292 298 305 299 295 298 297 296 300 305 301 296 292 288 294 298 300 303 307 312 314 315 316 317 319 321 323 324 323 324 324 323 323 325 327 329 330 332 333 335 335 335 335 336 337 338 340 340 342 343 344 344 345 347 349 349 347 348 347 348 350
295 297 298 300 304 298 298 296 296 297 298 302 299 293 296 300 297 292 302 309 307 309 313 314 315 317 318 320 321 320 319 320 321 323 323 326 323 326 329 331 332 332 333 334 335 336 338 338 338 340 342 342 344 344 343 346 348 351 351 350 348 350 349
297 297 297 298 298 298 299 297 297 297 297 298 297 300 303 300 293 295 304 308 306 310 314 317 317 317 318 320 320 321 321 321 320 319 319 320 321 322 325 328 330 329 330 332 333 335 336 339 339 340 340 342 342 342 343 345 347 348 350 349 348 348 347
298 298 299 300 298 298 299 299 298 298 297 301 303 305 307 306 302 306 308 308 309 313 316 318 319 321 322 321 321 320 319 318 318 318 318 319 321 323 323 324 326 329 331 332 333 334 335 336 338 340 342 342 340 340 342 344 348 349 346 345 344 342 342
295 297 301 298 297 297 296 298 301 298 298 307 309 309 310 311 309 310 310 310 309 315 319 319 321 322 322 322 320 318 318 318 318 317 318 322 324 325 324 324 324 326 330 331 332 333 334 336 337 338 340 340 340 340 341 344 347 349 349 344 344 343 342
290 296 296 297 298 298 296 298 299 298 295 301 307 307 310 309 307 309 309 308 309 316 319 320 320 320 320 319 319 317 316 318 317 316 317 319 321 322 323 324 325 326 328 330 331 332 334 337 338 338 339 341 341 342 343 344 344 344 344 344 341 341 343
290 295 296 296 296 294 291 293 298 303 303 303 306 309 313 313 314 308 305 306 315 318 320 317 316 318 318 318 317 315 315 316 316 315 316 316 318 318 321 325 327 327 329 331 333 334 336 337 339 340 341 340 340 340 340 341 341 340 339 340 340 340 341
289 294 296 296 290 285 287 296 302 308 305 306 305 305 309 313 313 308 311 313 317 319 318 316 315 316 317 317 317 318 317 315 314 315 316 318 319 319 320 324 328 329 331 332 334 336 336 338 338 339 340 339 338 339 339 338 337 337 337 337 337 338 339
290 292 293 289 284 287 298 306 306 309 309 310 309 310 313 315 317 317 316 316 317 318 318 318 318 318 318 319 319 318 319 317 316 316 317 317 320 319 319 322 325 329 332 333 334 334 335 336 336 336 336 335 334 333 334 334 335 335 336 336 336 336 337
291 287 288 283 285 296 307 305 310 314 314 314 313 310 314 317 317 318 316 317 318 318 318 318 319 319 320 321 321 320 320 320 317 316 316 318 319 319 321 322 324 326 330 332 331 332 336 334 333 333 333 333 331 330 331 331 332 333 334 334 334 336 336
288 288 286 287 296 301 301 304 303 303 304 307 307 301 305 314 317 317 315 316 317 318 318 319 319 319 319 316 315 322 322 320 319 318 317 318 319 321 322 327 327 328 331 331 332 332 333 332 330 330 331 330 329 329 329 330 330 331 332 332 332 333 334
291 287 285 285 285 285 292 301 307 309 309 312 313 310 304 313 316 319 317 316 317 317 318 318 318 318 314 310 312 318 322 323 321 320 319 320 321 323 323 324 325 327 329 331 332 331 331 331 332 332 331 331 329 328 328 329 329 330 330 330 332 332 333
291 289 284 284 284 289 296 302 309 311 315 315 313 306 300 307 314 319 319 317 317 317 317 316 317 312 308 308 312 318 321 321 320 319 319 319 321 322 323 323 323 326 328 330 333 331 328 327 328 329 328 327 327 326 327 327 328 329 329 330 331 332 333
292 288 285 284 289 295 303 308 310 309 313 310 302 292 295 308 315 318 319 317 317 317 318 318 315 310 305 306 313 320 321 321 320 319 317 316 319 321 323 322 327 328 329 330 329 329 328 329 333 329 329 327 325 323 323 324 325 327 329 331 331 332 333
294 294 287 288 293 302 309 311 311 308 311 302 291 285 296 310 316 318 319 318 318 318 318 317 313 313 311 314 319 322 321 320 318 318 317 317 318 320 324 325 332 326 328 328 328 329 329 331 332 332 331 327 326 326 323 322 323 325 327 329 330 331 332
289 288 286 287 290 300 306 307 312 312 305 293 288 296 307 315 316 318 319 318 318 319 319 318 314 314 317 320 321 320 319 317 315 315 316 317 318 320 326 328 326 323 326 326 328 329 330 331 331 330 329 327 327 324 322 322 324 326 326 327 328 329 329
292 291 289 287 285 300 312 310 305 309 297 294 301 311 315 319 318 318 318 319 319 319 317 318 318 318 320 321 320 318 317 315 314 313 312 310 310 315 320 320 325 324 323 325 327 328 329 330 328 330 331 326 325 324 322 322 323 324 327 327 327 327 327
289 289 288 286 291 298 311 307 299 305 306 310 314 315 313 316 318 318 317 318 319 320 319 319 319 319 319 318 318 316 315 314 313 312 311 311 311 312 317 319 321 325 323 324 325 327 328 329 329 327 328 326 326 323 322 324 325 323 319 319 321 322 321
298 295 296 300 302 307 311 312 309 311 314 316 316 316 315 315 315 317 318 317 318 321 320 320 319 318 319 319 318 315 312 312 312 312 312 311 312 313 314 316 321 320 320 321 323 326 327 328 328 328 329 327 327 324 325 327 326 324 321 319 317 317 316
310 309 305 308 309 311 314 315 315 315 317 317 316 317 315 315 317 318 317 318 320 321 321 320 319 319 319 317 314 313 312 312 312 313 312 313 315 316 317 317 318 317 317 319 320 322 323 326 327 329 328 328 326 325 327 329 328 327 325 321 319 316 315
299 297 306 308 309 311 312 313 315 316 317 316 316 317 317 317 318 318 319 321 321 321 321 320 319 318 319 315 313 313 313 313 313 313 313 313 314 314 314 318 320 315 316 316 316 317 317 320 323 326 326 327 327 327 327 327 327 326 326 325 322 316 313
298 299 305 309 310 311 312 313 313 311 314 315 318 319 319 319 319 320 322 323 322 322 320 320 319 319 318 315 313 314 314 313 313 313 312 312 313 315 317 318 318 316 316 315 316 317 317 317 319 322 323 323 325 325 326 327 326 325 324 323 320 319 317
303 307 309 310 311 312 311 311 311 314 317 317 318 319 319 319 319 321 323 324 322 322 321 321 320 319 318 316 314 314 313 313 312 312 314 316 318 319 319 319 319 315 317 318 318 319 318 319 319 319 321 322 324 324 325 325 325 324 324 326 322 319 319
299 300 303 307 303 302 307 309 314 316 317 319 319 319 319 320 320 321 321 321 322 323 323 322 321 319 317 315 314 313 313 313 314 316 318 319 320 320 321 321 320 321 321 319 319 319 318 320 322 322 322 323 324 325 324 322 322 323 323 321 320 321 321
297 304 307 308 307 307 307 309 316 317 318 319 319 319 319 320 322 322 321 320 320 321 322 323 321 319 316 314 314 313 314 316 318 319 319 319 320 321 322 321 321 321 320 322 321 320 319 321 322 323 323 323 324 324 324 322 320 319 319 320 319 320 324
307 308 312 312 308 309 311 315 316 317 317 319 318 320 321 321 322 322 322 322 321 320 321 322 322 319 315 314 315 315 317 318 318 319 320 320 321 321 322 321 321 322 322 322 321 321 319 321 320 320 321 321 322 324 324 323 321 319 318 318 317 318 322
307 312 313 313 311 313 316 316 317 317 318 319 318 318 320 320 321 322 322 322 323 322 321 320 320 318 316 316 317 318 318 318 320 321 322 323 323 322 321 321 321 322 322 322 321 320 320 319 319 320 319 320 322 324 324 324 323 322 320 319 318 318 321
Wind_Speed
3 4 3 2 4 1 3 4 1 4 5 5 1 4 6 8 7 3 2 2 3 2 2 2 7 7 7 4 4 4 4 4 2 3 1 3 5 6 2 3 3 2 1 1 0 1 9 14 15 13 13 14 14 13 12 11 9 8 10 10 10 9 8
5 6 3 0 2 5 4 1 6 3 2 4 3 0 2 5 6 1 1 2 2 1 3 3 5 7 5 4 2 2 4 5 7 6 5 5 7 5 3 1 4 2 2 1 3 3 1 9 12 11 11 10 10 12 13 14 11 11 10 9 9 9 9
4 1 4 4 2 1 5 6 2 2 1 2 4 3 0 3 2 1 2 1 1 0 3 3 6 5 7 5 4 4 6 7 6 5 5 5 3 2 4 4 4 4 7 9 10 9 6 2 8 10 10 9 10 10 12 14 14 12 14 11 9 7 8
4 3 5 2 3 5 1 3 5 0 5 3 2 0 2 6 3 3 1 0 2 3 2 2 6 5 5 6 6 5 5 4 4 4 5 4 4 5 4 6 6 5 7 6 9 13 13 8 2 8 10 9 12 11 13 12 9 5 7 10 11 12 10
5 2 2 1 0 2 4 5 3 2 0 2 4 3 2 5 6 5 5 1 3 3 3 4 6 4 3 3 4 2 4 4 4 5 5 5 4 4 4 5 5 5 5 5 5 6 9 11 8 3 3 8 9 9 11 10 11 9 9 9 8 9 9
2 3 5 2 2 4 4 3 2 3 2 3 3 1 4 3 7 4 4 3 2 3 2 5 2 3 2 2 3 2 5 6 5 5 5 6 5 4 3 4 5 4 4 2 4 7 7 5 8 8 4 6 7 9 10 11 7 0 7 7 8 7 7
4 8 10 5 4 3 4 6 1 4 3 6 5 3 1 5 3 6 2 5 2 3 3 2 2 1 1 2 1 3 4 6 6 6 6 7 7 6 6 5 3 2 3 2 1 6 7 6 3 4 4 3 6 10 11 9 8 3 8 4 3 5 7
7 7 6 4 6 4 6 3 2 2 2 4 7 7 7 6 3 4 2 3 2 2 2 1 2 2 2 1 3 3 5 4 6 6 6 6 6 6 6 4 4 2 1 2 2 4 6 5 5 7 6 7 6 2 6 6 7 8 7 1 7 4 6
8 7 9 8 8 6 3 3 5 1 3 5 5 5 3 6 2 7 8 4 3 2 3 3 3 2 1 3 3 3 5 5 4 4 4 4 6 6 7 6 4 3 2 4 3 4 4 6 7 6 6 5 4 4 3 2 5 7 7 8 2 8 6
1 1 2 3 4 4 4 2 3 7 7 4 3 2 2 4 1 4 5 2 3 1 3 3 3 2 3 4 4 5 5 5 3 3 3 4 5 6 6 7 6 6 4 2 2 3 4 5 5 4 4 3 2 2 3 2 1 2 3 6 7 3 9
6 7 6 7 1 2 1 4 4 3 3 4 6 5 5 4 3 4 1 5 7 4 4 3 3 2 3 4 3 4 3 3 2 1 2 3 4 5 6 6 6 5 5 4 2 2 4 4 3 4 5 4 3 1 3 3 2 1 2 5 7 7 3
8 7 6 7 4 5 4 3 4 3 1 2 4 3 6 9 9 3 1 9 11 8 5 5 4 3 4 4 3 3 3 3 2 1 1 4 3 4 5 6 6 6 5 5 5 3 3 5 5 5 2 3 3 4 2 1 0 1 2 3 5 5 5
6 5 5 4 3 3 1 4 1 5 3 4 4 4 8 4 3 8 7 8 9 7 7 6 6 5 5 6 4 4 4 3 2 1 2 3 3 3 3 4 4 3 4 4 4 4 3 0 1 3 1 1 2 3 3 1 2 0 1 3 2 4 3
1 3 3 3 5 8 6 4 1 1 6 7 9 4 4 8 6 9 12 7 5 6 7 7 5 4 6 5 2 1 2 3 3 2 2 3 3 3 3 4 3 3 3 3 3 3 4 4 4 3 2 1 2 1 1 2 2 2 2 2 4 5 7
1 2 4 5 5 8 8 5 3 0 5 10 10 10 10 14 9 8 10 9 5 1 5 5 3 5 4 4 3 1 1 1 3 2 2 3 4 4 3 3 4 3 2 3 3 4 3 3 3 3 3 1 1 1 0 1 1 2 4 5 3 2 3
3 3 4 5 8 7 4 2 4 5 5 9 7 9 5 9 8 9 9 8 4 3 3 6 5 5 6 6 5 3 1 0 3 3 1 3 2 3 2 3 3 3 3 4 4 3 3 3 3 4 4 4 3 3 3 5 4 4 4 5 5 5 5
2 3 3 5 6 6 6 4 2 11 6 10 4 4 3 9 18 12 9 8 8 10 8 9 5 6 5 5 4 3 2 2 3 3 1 1 2 2 3 3 3 3 3 3 4 4 3 4 5 6 6 6 6 6 7 5 5 6 6 5 5 5 3
2 4 2 3 6 3 2 3 3 11 11 14 11 7 10 10 7 6 6 8 9 10 8 10 9 8 7 5 4 3 5 4 3 2 1 0 1 3 3 3 3 3 3 5 5 5 6 5 6 7 8 8 7 7 7 7 7 6 6 5 5 4 4
0 2 5 6 1 2 4 6 6 6 13 13 11 7 8 6 7 13 12 12 13 12 10 9 8 5 3 3 5 3 3 4 4 4 3 1 0 2 3 4 5 4 3 5 6 7 7 6 7 8 8 7 7 8 7 7 6 6 5 5 4 3 4
1 4 2 2 2 4 2 5 9 12 15 16 18 10 3 5 10 13 12 10 10 10 8 6 6 7 5 5 2 3 3 4 5 4 3 2 1 1 1 2 4 4 4 5 6 6 5 6 7 8 7 6 7 7 7 7 6 6 6 6 5 5 6
2 2 1 3 3 2 4 1 5 4 8 7 12 6 2 3 6 10 10 8 8 10 9 9 8 6 6 4 1 0 3 3 3 4 3 2 1 1 2 2 3 3 2 4 6 5 4 6 7 7 6 7 7 7 8 6 6 6 6 7 6 6 7
4 4 1 4 5 0 4 6 7 3 7 8 11 11 2 4 2 8 13 12 11 11 9 10 9 8 7 4 4 4 2 3 4 2 3 3 3 2 3 3 4 5 4 4 4 5 5 5 4 3 5 6 6 6 6 5 6 7 7 7 6 6 6
3 4 3 2 2 1 6 3 3 1 11 13 8 8 2 4 4 6 13 12 12 14 13 11 9 8 7 7 6 6 4 3 4 4 3 3 3 2 2 3 4 4 4 3 3 4 6 6 3 3 5 6 6 5 3 3 4 6 6 5 5 5 5
2 5 3 2 3 1 3 5 1 2 7 7 8 4 5 7 6 7 11 13 12 10 12 12 10 10 8 7 8 6 7 6 5 5 4 3 3 1 1 2 2 3 4 4 4 6 8 7 7 4 4 3 4 4 3 2 4 5 4 4 3 2 3
1 5 1 1 2 3 2 2 1 3 2 8 4 3 8 7 9 9 11 13 12 12 11 10 9 8 5 6 8 7 7 5 3 3 3 4 5 4 1 2 5 4 3 3 4 5 6 6 5 5 4 3 3 3 3 4 5 4 4 5 5 3 3
2 3 4 4 2 3 1 1 0 1 3 2 2 4 3 12 9 8 10 12 10 11 12 10 6 5 3 6 8 9 9 8 6 5 4 3 2 1 4 6 5 5 5 5 4 5 5 7 5 4 2 2 2 4 4 4 4 4 6 6 6 6 6
2 2 2 1 1 2 3 1 2 3 2 5 4 4 3 9 10 10 7 10 10 10 7 5 5 5 7 10 9 9 9 8 7 6 5 5 5 6 7 5 6 7 4 4 5 5 5 7 5 3 4 2 3 4 6 4 3 3 5 5 5 5 4
3 2 1 2 3 1 1 2 2 2 3 6 8 9 6 4 8 8 7 4 8 9 10 9 7 8 10 6 8 8 9 8 6 4 4 3 4 4 5 6 6 7 6 4 4 4 5 4 5 3 2 1 2 4 4 3 4 5 7 8 8 6 5
2 2 4 5 5 4 3 4 2 3 4 7 8 8 10 9 5 5 8 7 6 10 12 10 11 9 9 9 8 10 8 7 6 6 5 5 7 7 7 6 5 5 7 7 5 3 2 3 4 3 2 1 1 4 2 3 4 5 6 6 6 6 6
2 1 3 2 0 1 2 3 4 8 5 4 6 9 7 4 6 8 9 7 8 9 11 11 7 10 9 9 7 8 7 7 5 5 4 4 5 6 6 5 5 5 4 5 5 4 3 3 4 4 3 3 3 2 3 4 4 4 5 6 6 6 6
1 0 1 3 6 3 5 6 4 5 6 6 5 8 8 7 7 5 6 10 10 11 10 12 11 9 8 9 8 8 7 8 7 6 6 6 7 8 7 6 6 5 5 5 4 4 4 2 3 3 4 3 3 3 5 5 6 7 7 7 6 6 6
2 3 6 2 1 4 5 8 6 4 5 6 8 8 8 9 7 9 8 9 9 9 9 10 12 10 8 10 9 8 8 8 7 7 7 6 5 5 6 6 7 6 6 6 5 6 5 3 3 2 3 3 4 5 5 5 6 7 8 7 6 4 5
2 2 1 3 2 1 2 4 4 6 8 8 6 8 9 9 9 8 8 10 11 10 10 10 11 11 7 8 9 9 7 7 7 7 6 5 7 6 7 6 7 7 6 6 5 5 4 3 3 3 3 3 4 6 6 5 7 8 7 7 7 6 4
0 3 3 5 6 3 5 3 7 7 8 12 10 8 9 9 10 10 10 6 6 9 11 11 11 10 8 9 10 9 8 8 7 6 6 6 7 6 6 6 6 5 5 6 6 5 4 4 3 3 3 4 4 5 5 5 6 7 6 7 7 6 6
4 6 7 6 5 6 7 5 6 8 9 12 12 12 11 10 11 11 11 9 7 8 8 9 10 9 10 11 10 9 6 7 8 9 9 8 7 7 6 7 6 6 5 4 5 4 4 3 3 3 4 4 4 4 4 4 6 6 5 6 5 6 6
2 3 6 9 6 8 4 4 7 8 9 13 13 11 11 12 11 10 11 12 12 9 9 7 7 10 10 10 11 10 8 8 9 8 7 8 8 7 6 8 7 6 5 5 4 5 4 4 4 4 4 3 4 3 4 4 4 5 5 6 5 5 5
3 3 5 5 6 6 5 8 7 7 6 11 12 12 11 11 10 11 12 9 10 14 11 8 6 9 12 10 10 11 10 8 9 9 8 7 7 7 6 6 7 7 6 5 4 3 3 4 4 3 4 2 2 3 3 3 4 5 4 4 5 4 4
Wind_Direction
150 213 183 196 110 161 269 51 271 217 185 131 117 28 56 87 68 42 239 115 311 254 305 342 17 18 4 2 11 3 359 340 73 100 111 146 141 142 164 228 173 150 256 6 339 331 187 186 193 193 175 174 172 164 163 167 167 172 175 178 179 179 177
250 222 158 84 147 141 74 55 250 257 64 121 125 166 13 42 99 244 28 198 262 7 154 337 358 2 335 320 313 332 349 360 14 13 12 11 360 334 307 78 114 117 122 72 354 319 315 209 189 176 173 171 163 160 160 167 167 170 179 176 180 179 178
252 326 50 356 316 92 154 200 210 82 310 357 317 89 31 111 43 114 350 339 326 176 257 348 331 323 310 317 321 341 13 5 3 0 14 344 347 20 40 27 12 44 3 1 349 341 329 227 168 157 151 146 155 161 162 167 178 175 173 171 167 176 186
302 12 66 298 286 327 30 44 4 319 105 173 69 287 169 103 135 70 289 305 263 223 216 215 260 269 295 316 333 360 13 349 343 330 337 360 16 18 20 55 60 64 84 64 3 338 341 342 145 149 143 143 154 158 167 175 154 132 160 167 168 170 177
29 358 360 274 294 37 357 33 340 351 46 202 116 27 63 143 153 166 148 231 272 255 212 189 234 266 276 322 314 338 357 16 357 9 12 357 13 25 18 31 61 54 56 84 87 37 7 341 349 19 107 143 149 157 166 168 163 156 169 175 179 186 177
357 255 235 214 250 163 146 141 153 189 75 45 63 320 330 81 108 167 137 208 253 267 178 208 216 259 309 298 301 359 28 29 21 24 22 21 4 8 25 18 48 63 47 32 109 111 81 29 1 10 39 87 83 68 47 18 355 271 174 175 186 183 198
272 269 297 298 238 154 157 133 156 147 125 101 100 114 213 40 48 85 117 114 276 230 195 179 197 238 284 275 338 54 40 39 37 40 38 31 20 12 1 8 90 142 129 116 71 90 106 104 63 14 1 58 122 130 132 149 151 259 331 323 221 185 192
301 317 294 356 26 38 24 0 51 76 167 170 165 165 168 118 148 72 34 57 249 277 188 158 166 196 227 353 67 77 57 42 37 39 35 22 23 8 6 4 60 207 166 96 68 75 86 85 52 12 2 7 13 51 144 152 157 157 134 266 291 240 207
336 345 350 1 339 42 67 325 301 295 114 78 113 98 61 84 225 166 123 169 245 270 130 167 181 219 114 86 72 74 74 55 37 33 28 25 19 14 23 20 50 87 66 63 70 65 54 76 82 61 35 22 15 7 17 97 163 171 155 150 188 299 256
102 346 357 284 299 293 296 294 345 17 64 122 68 84 30 93 314 93 113 179 262 226 144 180 200 165 123 124 114 104 90 77 58 12 13 32 31 18 15 21 35 77 81 91 95 89 75 58 85 126 144 176 166 125 130 85 351 76 145 149 149 190 285
179 205 216 248 144 341 352 300 28 355 62 81 90 100 83 140 175 68 235 161 143 162 191 176 203 188 147 107 94 104 109 102 76 2 11 35 37 30 23 25 24 23 48 57 90 131 120 129 164 203 172 153 137 110 44 46 80 253 225 183 160 154 200
194 197 215 254 250 255 268 310 315 329 30 112 89 106 157 167 102 8 302 142 141 188 177 191 199 173 129 129 128 117 110 117 141 133 27 53 37 33 45 43 37 29 24 23 28 57 143 188 209 219 178 121 143 120 103 323 240 215 205 199 171 159 157
205 209 230 256 283 242 217 288 171 64 79 88 109 143 157 135 127 178 184 161 146 180 181 185 190 167 150 151 164 179 164 142 111 62 58 52 44 25 46 46 47 44 32 19 22 14 5 43 249 280 286 115 211 203 177 220 229 353 288 169 133 108 120
315 307 299 322 350 315 292 288 184 127 89 110 114 100 141 125 138 144 150 152 143 167 177 180 186 155 135 146 155 126 109 126 127 90 33 46 38 34 22 15 14 24 37 30 18 22 15 5 1 21 33 134 206 284 280 260 262 168 160 355 80 88 113
304 292 330 8 9 345 315 261 239 103 102 93 96 102 93 85 69 108 121 120 124 245 158 143 130 125 119 114 120 184 230 117 101 65 32 37 45 36 15 8 1 351 19 38 26 17 13 15 26 40 67 62 40 41 14 349 19 333 97 124 93 118 71
317 329 20 354 1 350 353 327 73 79 119 101 128 119 170 121 143 128 112 120 156 199 145 114 129 133 134 141 152 178 236 192 98 91 51 44 32 27 8 341 344 351 12 30 24 12 0 17 42 56 61 78 86 69 44 52 37 38 52 71 87 86 89
269 266 16 20 6 16 14 313 192 101 77 119 107 102 113 144 142 133 152 200 177 160 149 136 155 145 147 146 164 172 213 199 130 124 110 352 14 357 348 354 16 16 12 20 16 20 32 36 53 57 64 67 63 58 59 44 51 52 52 56 69 64 68
240 305 350 48 47 12 252 228 226 121 127 120 119 128 130 151 144 182 178 152 145 148 151 155 164 161 172 170 201 179 159 146 129 118 147 173 315 347 356 7 18 15 23 25 16 26 40 49 65 65 61 69 67 64 63 56 54 51 56 57 62 69 83
271 325 16 43 12 248 254 336 345 117 117 105 102 99 118 130 111 107 111 135 153 164 160 157 153 146 149 140 144 158 155 134 141 145 156 169 352 8 11 16 8 0 25 35 27 33 28 41 52 64 64 64 71 68 63 64 63 67 63 66 53 62 68
59 45 31 100 248 238 267 34 78 81 88 101 92 56 24 121 137 135 140 157 148 139 136 137 137 135 129 95 75 135 162 155 148 136 150 174 155 32 341 37 21 8 13 48 42 31 36 47 61 68 72 74 74 72 71 67 61 59 58 52 47 43 54
157 180 145 200 285 333 340 118 160 153 146 149 128 136 233 223 154 136 134 131 132 130 137 132 123 117 94 83 10 322 140 150 151 148 159 145 90 81 37 48 26 9 355 65 70 62 47 60 65 69 70 67 68 67 63 56 60 62 58 52 37 37 36
115 124 39 359 28 64 271 251 275 294 140 129 124 107 180 300 258 145 136 145 144 137 136 134 133 115 103 149 232 245 202 141 127 107 117 104 91 75 59 38 38 24 25 48 57 76 72 58 44 50 64 64 62 62 59 55 64 61 58 51 34 28 27
74 65 118 179 140 245 214 243 328 54 119 116 97 74 189 264 185 170 138 147 152 151 150 148 140 133 161 206 214 221 182 161 142 134 136 119 115 82 67 67 54 54 46 36 30 46 53 54 32 52 62 74 81 79 69 69 73 78 75 73 56 43 33
153 140 111 207 196 190 216 213 218 209 146 93 63 66 253 233 179 171 151 153 158 162 155 154 159 162 178 207 213 192 174 167 166 155 161 138 121 117 86 355 36 43 33 30 33 63 58 26 359 22 26 53 79 85 72 79 81 82 89 95 94 71 53
146 115 239 3 303 287 259 241 222 206 215 77 92 187 236 185 165 175 161 161 164 159 161 164 171 214 186 188 162 156 158 142 161 165 162 177 164 160 157 85 96 79 54 57 65 69 81 63 38 29 27 23 61 76 80 71 77 81 83 75 70 71 65
168 180 131 210 228 237 206 282 146 151 98 139 217 237 185 146 164 169 166 161 167 166 168 179 187 201 202 143 131 145 155 161 176 172 173 172 175 147 140 110 94 83 81 83 76 73 77 77 38 8 24 49 74 96 96 90 106 98 80 74 75 74 76
53 41 94 138 186 269 187 223 358 30 109 228 201 124 98 142 151 158 169 160 169 162 162 157 148 136 138 140 142 146 155 154 167 171 156 159 150 133 124 105 107 114 103 102 114 122 118 120 117 67 334 3 65 75 81 96 113 104 96 90 81 83 91
157 127 128 188 212 226 272 111 176 233 200 169 149 132 126 144 146 153 148 159 162 157 145 148 145 141 134 131 132 133 149 159 163 166 157 145 126 124 130 133 132 127 128 134 121 112 117 129 121 152 219 191 80 76 74 91 94 96 97 96 94 80 59
130 195 209 237 221 205 253 144 179 154 145 146 153 139 145 146 166 150 148 161 155 148 142 145 144 142 151 149 145 142 156 151 151 150 160 153 150 146 145 149 140 132 136 126 107 78 67 105 119 136 250 214 87 66 33 64 82 97 96 95 98 102 100
232 69 178 196 89 134 152 112 136 136 133 117 128 131 131 170 151 161 158 157 149 147 143 137 150 151 153 141 144 145 146 146 145 132 118 117 125 129 128 125 126 129 116 106 113 111 76 68 69 89 87 73 69 35 33 51 66 87 89 88 85 84 84
71 176 305 135 171 180 158 145 154 149 141 155 149 149 150 158 155 150 153 151 155 153 150 147 151 155 149 140 149 146 145 141 143 141 136 137 134 132 128 138 125 115 112 102 101 97 83 42 61 68 81 79 92 68 52 51 70 84 88 86 83 78 80
137 212 223 228 206 212 178 151 155 152 145 158 163 160 156 152 158 152 153 142 142 146 146 150 149 157 151 143 151 148 146 147 149 147 143 138 116 120 126 123 115 113 113 121 117 107 103 105 98 87 74 77 73 64 59 62 75 80 81 88 94 97 95
274 290 357 94 127 132 251 203 146 159 156 150 149 140 136 131 131 136 147 154 155 154 154 150 151 152 151 148 151 146 147 147 151 153 149 144 140 138 125 126 121 124 124 113 115 111 120 126 111 98 83 68 59 59 61 73 84 82 79 82 86 85 92
140 185 209 132 117 231 252 232 155 156 156 137 138 132 130 137 137 145 144 147 149 149 152 154 155 154 151 153 152 151 153 156 153 141 137 139 134 134 132 125 122 120 122 127 123 120 127 122 116 109 92 74 64 62 68 73 83 87 85 76 73 76 83
224 237 223 199 161 171 201 199 180 152 148 135 141 152 153 157 152 149 144 140 134 148 160 159 153 149 153 156 152 146 148 154 149 143 140 136 133 137 136 124 126 129 139 131 127 130 143 124 103 97 92 82 74 68 76 83 89 92 88 84 77 71 73
225 197 186 162 154 166 195 197 180 161 155 145 152 160 159 158 157 155 152 153 149 155 160 166 155 150 151 154 151 151 152 147 140 144 144 142 142 145 142 139 143 140 143 142 149 162 168 144 135 118 96 89 95 89 88 91 89 85 82 86 85 75 79
203 203 167 189 158 151 150 167 174 158 159 142 150 161 161 157 161 158 155 157 153 152 157 161 152 155 152 157 152 149 150 153 148 147 148 142 143 139 141 137 146 151 160 163 164 152 134 125 122 117 106 99 89 80 73 72 76 77 81 94 94 86 78